Greenland, New Hampshire, United States (03840)
Lat: 43.04N, Lon: 70.83W
Wx Zone: NHZ014
Local Info
Past Weather Observations for Wednesday, October 22, 2014

NOTE: This archive is for the closest National Weather Service station to Greenland. Information may differ from the station used for current weather conditions.

Click here for Long-term Archive

Time Weather Temperature Dewpoint Humidity Pressure Winds Precip Visibility
23:58
Overcast
Light Rain
48°F / 9°C 45°F / 7°C 87% 29.83 in
(1010 mb)
NE 20.7 mph
(NE 33 kph)
0.07 in
(1.78 mm)
5SM
22:58
Overcast
Light Rain
48°F / 9°C 46°F / 8°C 94% 29.89 in
(1012 mb)
NNE 18.4 mph
(NNE 30 kph)
0.05 in
(1.27 mm)
7SM
21:58
Overcast
Light Rain
48°F / 9°C 46°F / 8°C 94% 29.92 in
(1013 mb)
NE 19.6 mph
(NE 32 kph)
0.02 in
(0.51 mm)
3SM
21:43
Overcast
Light Rain
48°F / 9°C 46°F / 8°C 94% 29.92 in
(1013 mb)
NE 21.9 mph
(NE 35 kph)
- 1 1/2SM
21:28
Overcast
Light Rain
48°F / 9°C 46°F / 8°C 94% 29.92 in
(1013 mb)
NE 18.4 mph
(NE 30 kph)
- 2SM
20:58
Overcast
Light Rain
48°F / 9°C 46°F / 8°C 94% 29.92 in
(1013 mb)
NE 18.4 mph
(NE 30 kph)
0.06 in
(1.52 mm)
5SM
20:22
Overcast
Light Rain
48°F / 9°C 46°F / 8°C 94% 29.95 in
(1014 mb)
NE 18.4 mph
(NE 30 kph)
- 5SM
19:58
Overcast
Light Rain
48°F / 9°C 46°F / 8°C 94% 29.95 in
(1014 mb)
NE 18.4 mph
(NE 30 kph)
0.01 in
(0.25 mm)
2SM
19:43
Overcast
Light Rain
48°F / 9°C 46°F / 8°C 94% 29.95 in
(1014 mb)
NE 21.9 mph
(NE 35 kph)
- 2SM
18:58
Overcast
Light Rain
48°F / 9°C 46°F / 8°C 94% 29.95 in
(1014 mb)
NE 19.6 mph
(NE 32 kph)
0.00 in
(0.00 mm)
1 1/2SM
17:58
Overcast
Light Rain
50°F / 10°C 46°F / 8°C 88% 29.95 in
(1014 mb)
NE 27.6 mph
(NE 44 kph)
0.04 in
(1.02 mm)
2SM
17:28
Overcast
Light Rain
48°F / 9°C 46°F / 8°C 94% 29.98 in
(1015 mb)
NNE 24.2 mph
(NNE 39 kph)
- 2SM
16:58
Overcast
Light Rain
48°F / 9°C 46°F / 8°C 94% 29.98 in
(1015 mb)
NE 18.4 mph
(NE 30 kph)
0.01 in
(0.25 mm)
1SM
16:43
Overcast
Light Rain
48°F / 9°C 46°F / 8°C 94% 29.98 in
(1015 mb)
NE 17.3 mph
(NE 28 kph)
- 1SM
15:58
Overcast
Light Rain
48°F / 9°C 46°F / 8°C 94% 29.98 in
(1015 mb)
NE 23 mph
(NE 37 kph)
0.01 in
(0.25 mm)
2SM
14:58
Overcast
Light Rain
50°F / 10°C 46°F / 8°C 88% 29.98 in
(1015 mb)
NNE 18.4 mph
(NNE 30 kph)
0.04 in
(1.02 mm)
2SM
13:58
Overcast
Light Rain
50°F / 10°C 48°F / 9°C 94% 29.98 in
(1015 mb)
N 19.6 mph
(N 32 kph)
0.01 in
(0.25 mm)
1 1/2SM
13:43
Overcast
Light Rain
50°F / 10°C 46°F / 8°C 88% 29.98 in
(1015 mb)
N 19.6 mph
(N 32 kph)
- 1 1/2SM
13:28
Overcast
Light Rain
50°F / 10°C 48°F / 9°C 94% 30.01 in
(1016 mb)
NNE 18.4 mph
(NNE 30 kph)
- 3SM
12:58
Overcast
Light Rain
50°F / 10°C 48°F / 9°C 94% 30.01 in
(1016 mb)
N 15 mph
(N 24 kph)
0.03 in
(0.76 mm)
2SM
11:58
Overcast
Light Rain
50°F / 10°C 48°F / 9°C 94% 30.01 in
(1016 mb)
NE 15 mph
(NE 24 kph)
0.01 in
(0.25 mm)
2SM
10:58
Overcast
Light Rain
50°F / 10°C 48°F / 9°C 94% 30.04 in
(1017 mb)
NNE 12.7 mph
(NNE 20 kph)
0.00 in
(0.00 mm)
2 1/2SM
09:58
Overcast
Light Rain
50°F / 10°C 48°F / 9°C 94% 30.06 in
(1018 mb)
NNE 13.8 mph
(NNE 22 kph)
0.02 in
(0.51 mm)
2SM
08:58
Overcast
Light Rain
50°F / 10°C 46°F / 8°C 88% 30.06 in
(1018 mb)
NNE 11.5 mph
(NNE 19 kph)
0.01 in
(0.25 mm)
2SM
07:58
Overcast
Light Rain
50°F / 10°C 48°F / 9°C 94% 30.06 in
(1018 mb)
N 10.4 mph
(N 17 kph)
0.01 in
(0.25 mm)
1 1/2SM
06:58
Overcast
Drizzle
52°F / 11°C 48°F / 9°C 88% 30.06 in
(1018 mb)
NE 15 mph
(NE 24 kph)
0.01 in
(0.25 mm)
4SM
06:23
Overcast
Drizzle
52°F / 11°C 50°F / 10°C 94% 30.06 in
(1018 mb)
NE 17.3 mph
(NE 28 kph)
- 3SM
05:58
Overcast
Drizzle
52°F / 11°C 50°F / 10°C 94% 30.04 in
(1017 mb)
NE 21.9 mph
(NE 35 kph)
0.00 in
(0.00 mm)
8SM
04:58
Overcast
Light Rain
54°F / 12°C 50°F / 10°C 88% 30.04 in
(1017 mb)
NE 17.3 mph
(NE 28 kph)
0.02 in
(0.51 mm)
7SM
04:28
Overcast
52°F / 11°C 50°F / 10°C 94% 30.04 in
(1017 mb)
NNE 11.5 mph
(NNE 19 kph)
- 7SM
03:58
Overcast
Rain
52°F / 11°C 50°F / 10°C 94% 30.01 in
(1016 mb)
NNE 15 mph
(NNE 24 kph)
0.10 in
(2.54 mm)
3SM
02:58
Overcast
Light Rain
50°F / 10°C 48°F / 9°C 94% 30.01 in
(1016 mb)
N 10.4 mph
(N 17 kph)
0.07 in
(1.78 mm)
4SM
01:58
Overcast
Light Rain
50°F / 10°C 48°F / 9°C 94% 30.01 in
(1016 mb)
N 12.7 mph
(N 20 kph)
0.02 in
(0.51 mm)
7SM
01:30
Overcast
Light Rain
50°F / 10°C 46°F / 8°C 88% 30.01 in
(1016 mb)
N 12.7 mph
(N 20 kph)
- 4SM
00:58
Overcast
48°F / 9°C 46°F / 8°C 94% 30.01 in
(1016 mb)
N 11.5 mph
(N 19 kph)
- 8SM
Time Weather Temperature Dewpoint Humidity Pressure Winds Precip Visibility


Weather for websites

WeatherForYou.com, LLC is not responsible for any damages or problems caused by this service. Current weather conditions are obtained from the closest station including government and personal stations which may have varying degrees of accuracy. Weather forecasts are derived from the NOAA NDFD. Like all things, this site belongs to Jesus Christ... He just trusts me to maintain it. If you have any questions or comments email webmaster@weatherforyou.com

Copyright © 2014, WeatherForYou.com LLC. All rights reserved.